SCP
-0 -0 -0 -0 -0 -0 0 0 0 0 0 0 0 0 -0 0 0 0 0 0 0 0 0 0 -0 -0 0 0 0 0 -0 -0 0 -0 0 -0 0 0 0 0 0 -0 0 0
-0 -0 -0 -0 0 -0 0 0 0 -0 0 0 0 0 -0 0 0 -0 0 0 0 0 0 0 0 0 0 0 0 0 0 0 0 0 0 0 0 0 0 -0 0 0 -0 0
-0 -0 -0 0 0 0 0 0 0 0 0 0 0 0 0 -0 0 0 0 0 0 0 0 0 0 0 0 0 0 0 0 0 0 0 0 0 0 -0 -0 0 0 0 0 0
-0 -0 -0 0 0 0 0 0 0 -0 0 0 0 0 0 0 0 0 0 0 0 0 0 0 0 0 0 0 0 0 0 -0 -0 -0 0 0 -0 -0 0 0 -0 0 0 0
0 0 0 0 0 -0 0 0 0 0 0 -0 0 0 0 0 0 0 0 0 0 0 0 0 0 0 0 0 0 0 0 0 0 0 0 0 0 0 -0 0 0 0 0 0
0 0 0 0 0 0 0 0 0 0 0 0 0 0 0 0 0 0 0 0 -0 0 0 0 0 0 0 -0 0 0 0 0 0 0 0 0 0 0 0 0 0 0 0 0
0 0 0 0 0 0 0 0 0 0 0 0 -0 0 -0 0 0 0 0 0 0 0 0 0 0 0 0 0 0 0 0 0 0 0 0 0 0 0 0 0 0 0 0 0
0 0 0 0 0 0 0 0 0 0 0 0 0 0 0 0 0 0 0 0 0 0 0 0 0 0 0 0 0 0 0 0 0 0 0 0 0 0 0 0 0 0 0 0
0 0 0 0 0 0 0 0 0 0 0 0 0 0 0 0 0 0 0 0 0 0 0 0 0 0 0 0 0 0 0 0 0 0 0 0 0 0 0 0 0 0 0 0
0 0 0 0 0 0 0 0 0 0 0 0 0 0 0 0 0 0 0 0 0 0 0 0 0 0 0 0 0 0 0 0 0 0 0 0 0 0 0 0 0 0 0 0
0 0 0 0 0 0 0 0 0 0 0 0 0 0 0 0 0 0 0 0 0 0 0 0 0 0 0 0 0 0 0 0 0 0 0 0 0 0 0 0 0 0 0 0
0 0 0 0 0 0 0 0 0 0 0 0 0 0 0 0 0 0 -0 0 0 0 0 0 0 0 0 0 0 0 0 0 0 0 0 0 0 0 0 0 0 0 0 0
0 0 0 0 0 0 0 0 0 0 0 0 0 0 0 0 0 0 0 0 0 0 0 0 0 0 0 0 0 0 0 0 0 0 0 0 0 0 0 0 0 0 0 0
0 0 0 0 0 0 0 0 0 0 0 0 0 0 0 0 0 0 0 0 0 0 0 0 0 0 0 0 0 0 0 0 0 0 0 0 0 0 0 0 0 0 0 0
0 0 0 0 0 0 0 0 0 0 0 0 0 0 0 0 0 0 0 0 0 0 0 0 0 0 0 0 0 0 0 0 0 0 0 0 0 0 0 0 0 0 0 0
0 0 0 0 0 0 0 0 0 0 0 0 0 0 0 0 0 0 0 0 0 0 0 0 0 0 0 0 0 0 0 0 0 0 0 0 0 0 0 0 0 0 0 0
0 0 0 0 0 0 0 0 0 0 0 0 0 0 0 0 0 0 0 0 0 0 0 0 0 0 0 0 0 0 0 0 0 0 0 0 0 0 0 0 0 0 0 0
0 0 0 0 0 0 0 0 0 0 0 0 0 0 0 -0 0 0 0 0 0 0 0 0 0 0 0 0 0 0 0 0 0 0 0 0 0 0 0 0 0 0 0 0
0 0 0 0 0 0 0 0 0 0 0 0 0 0 0 0 0 0 0 0 0 0 0 0 0 0 0 0 0 0 0 0 0 0 0 0 0 0 0 0 0 0 0 0
0 0 0 0 0 0 0 0 0 0 0 0 0 0 0 0 -0 0 0 0 0 0 0 0 0 0 0 0 0 0 0 0 0 0 0 0 0 0 0 0 0 0 0 0
0 0 0 0 0 0 0 0 0 0 0 0 0 0 0 -0 0 0 0 0 0 0 0 0 0 0 0 0 0 0 0 0 0 0 0 0 0 0 0 0 0 0 0 0
0 0 0 0 0 0 0 0 0 0 0 0 0 0 0 0 0 0 0 0 0 0 0 0 0 0 0 0 0 0 0 0 0 0 0 0 0 0 0 0 0 0 0 0
0 0 0 0 0 0 0 0 0 0 0 0 0 0 0 0 0 0 0 0 0 0 0 0 0 0 0 0 0 0 0 0 0 0 0 0 0 0 0 0 0 0 0 0
0 0 0 0 0 0 0 0 0 0 0 0 0 0 0 0 0 0 0 0 0 0 0 0 0 0 0 0 0 0 0 0 0 0 0 0 0 0 0 0 0 0 0 0
0 0 0 0 0 0 -0 0 0 0 0 0 0 0 -0 0 0 0 0 0 0 0 0 0 -0 0 0 0 0 0 0 0 0 0 0 0 0 0 0 0 0 0 0 0
0 0 0 0 0 0 0 0 0 0 0 -0 0 0 0 0 0 0 0 0 0 0 0 -0 0 0 0 0 0 0 0 0 0 0 0 0 0 0 0 0 0 0 0 0
0 0 0 0 0 0 0 0 0 0 -0 0 0 0 0 0 0 0 0 0 0 0 0 0 0 0 0 0 0 0 0 0 0 0 0 0 0 0 0 0 0 0 0 0
Wind_Speed_500mb
42 43 42 43 34 13 7 14 10 26 32 23 26 26 40 10 3 15 26 15 15 17 23 21 25 22 9 17 11 15 19 27 17 26 24 25 15 15 13 4 19 6 17 10
40 40 39 40 35 20 15 14 16 21 32 16 22 35 29 1 29 16 19 11 23 6 5 15 22 23 20 10 8 19 16 13 17 27 16 34 21 24 25 30 26 23 14 20
37 38 36 35 34 27 18 15 8 16 33 45 37 32 20 22 25 27 15 17 16 10 11 8 11 27 14 7 9 16 12 25 30 26 4 16 14 45 28 26 15 22 23 11
34 35 35 31 31 24 14 14 10 18 18 28 31 36 21 28 20 22 11 15 10 16 6 13 20 16 20 9 11 5 10 25 31 34 7 13 28 34 29 32 27 21 28 33
31 31 34 30 28 17 15 15 18 37 24 32 31 27 27 26 25 23 19 24 25 26 16 12 2 12 12 15 11 16 22 23 28 33 38 39 27 32 36 24 28 29 30 22
29 27 30 29 27 10 12 22 18 20 27 17 17 24 23 21 28 18 19 13 27 17 14 21 17 5 9 19 5 15 26 25 19 28 39 40 32 27 23 19 14 26 22 22
27 23 24 25 23 20 11 19 26 15 21 18 16 24 31 35 17 7 22 17 21 15 10 4 16 19 20 14 14 24 21 16 16 22 26 31 32 10 10 9 12 15 20 13
24 21 19 21 18 16 12 6 19 20 20 32 28 1 12 4 8 6 21 17 10 4 5 5 13 16 23 26 26 8 18 16 21 18 24 29 35 29 23 17 17 31 22 21
22 20 16 17 19 16 11 0 13 15 21 10 32 7 14 14 10 25 14 7 9 10 7 11 14 14 19 17 5 10 3 16 14 18 25 26 20 19 18 9 1 26 24 23
20 19 15 14 16 16 13 11 13 11 22 22 22 17 19 24 11 20 26 20 16 10 11 16 18 22 6 9 12 15 14 3 16 18 15 4 22 19 20 11 11 19 22 23
18 19 15 12 13 15 10 10 12 8 18 16 13 14 21 31 27 14 16 13 13 8 12 15 18 13 12 8 7 16 7 11 17 15 18 2 23 13 15 11 18 28 31 34
18 18 16 12 9 10 3 6 13 17 16 15 10 8 9 11 15 17 13 11 7 19 6 8 8 12 6 13 14 13 4 5 9 11 8 13 22 22 17 20 24 30 34 34
18 18 17 14 9 8 7 9 11 18 18 27 23 18 4 4 8 7 13 4 9 7 10 15 8 6 11 12 5 12 14 12 4 10 15 15 16 16 21 25 28 34 38 43
21 20 18 16 11 9 8 10 4 13 16 12 28 9 5 9 7 8 6 6 2 3 5 18 9 13 3 7 5 10 13 7 6 9 20 15 16 22 26 30 31 34 39 42
22 23 19 18 14 11 9 11 1 8 8 13 6 13 6 7 1 3 6 13 14 10 13 11 10 12 3 9 7 12 17 12 6 12 19 10 19 25 28 31 35 33 41 50
25 23 21 19 15 9 3 8 10 20 2 11 6 17 10 4 3 5 7 8 9 12 12 9 6 15 8 9 7 12 18 15 15 11 11 14 21 23 29 27 33 40 44 44
24 21 19 20 17 15 9 3 8 12 9 9 9 15 14 12 11 12 11 10 11 10 11 3 8 11 7 11 7 22 17 12 8 5 9 19 24 29 26 32 40 39 40 43
20 15 16 18 15 12 13 11 6 7 4 10 8 8 14 21 16 11 8 11 12 6 3 5 9 19 9 3 24 19 13 5 2 9 16 22 23 31 36 38 40 42 42 43
14 11 12 12 11 10 17 9 9 13 8 10 11 9 8 25 23 16 13 7 9 10 8 9 5 7 3 21 22 14 11 6 11 16 18 23 26 31 31 37 37 39 39 40
18 25 5 12 20 13 6 4 8 10 14 12 12 29 11 30 27 11 15 12 9 9 10 13 7 3 30 27 20 14 6 5 12 19 18 22 26 27 31 35 32 33 38 45
22 10 5 5 23 12 12 15 16 18 12 19 29 35 9 24 13 13 13 2 6 6 9 7 11 12 26 27 22 12 4 5 12 10 11 17 21 25 27 33 29 32 37 42
14 8 14 13 13 15 12 10 12 14 20 18 36 32 15 21 7 10 6 4 3 5 13 6 6 18 39 29 23 12 4 7 9 10 12 15 21 23 22 25 28 31 33 38
16 5 9 12 17 6 12 22 13 12 14 20 37 22 19 13 17 9 5 6 7 7 6 7 9 36 28 18 12 6 2 2 7 6 10 18 20 17 20 20 24 26 32 38
8 12 8 12 12 14 15 18 18 22 24 30 36 29 10 18 16 6 8 9 3 7 11 17 24 34 28 17 9 5 3 15 7 6 13 23 18 16 18 20 21 27 30 30
7 10 9 17 21 22 36 26 21 25 33 35 35 27 21 15 5 4 3 8 8 9 6 21 40 31 22 12 5 3 8 13 9 6 16 16 13 15 17 19 20 22 26 27
8 12 15 15 20 7 6 21 22 24 36 43 37 9 9 5 8 10 10 6 9 9 16 34 30 22 14 10 7 10 12 11 8 12 14 5 9 11 15 14 16 21 22 28
9 12 14 19 22 8 13 22 24 30 43 16 13 9 9 9 8 14 12 7 16 38 40 31 28 17 10 9 12 14 14 12 8 11 8 4 9 9 10 14 14 18 20 22
Wind_Direction_500mb
344 349 349 349 348 338 214 261 267 171 172 203 231 239 249 26 181 217 284 325 295 229 183 186 233 256 194 158 291 197 246 285 293 219 217 215 221 281 259 280 295 321 323 83
341 346 349 349 348 338 290 268 141 173 185 222 224 236 265 182 245 199 230 236 280 214 179 181 248 112 80 103 225 17 350 233 260 257 204 360 334 305 280 277 274 301 269 124
336 343 347 347 344 331 307 285 163 175 210 245 293 282 226 229 258 300 229 241 232 280 216 142 230 126 103 142 52 7 315 293 305 300 8 152 238 294 306 295 289 303 309 150
332 339 344 345 340 325 295 249 289 185 193 224 244 265 243 227 204 233 228 265 269 236 249 191 225 201 110 164 119 221 252 259 276 293 322 19 196 202 256 251 293 298 315 318
326 335 341 346 342 319 265 292 349 335 279 195 225 252 273 226 243 174 218 246 241 232 248 331 215 56 190 177 148 234 237 260 279 285 287 285 288 284 288 253 290 302 299 323
320 331 341 349 354 2 309 348 320 289 293 274 217 232 223 251 248 187 262 255 256 231 70 46 41 156 323 328 77 315 310 311 325 299 311 315 303 302 339 332 356 353 340 13
311 323 337 347 360 7 328 343 324 291 276 251 225 237 222 231 270 203 241 291 348 80 81 81 293 299 315 305 323 297 296 296 294 284 286 276 280 302 19 352 337 348 333 26
302 311 327 340 347 349 323 355 322 294 285 299 292 86 281 256 238 231 276 76 26 69 106 288 280 274 242 252 247 258 346 306 286 283 271 278 281 39 25 30 30 26 359 9
293 299 313 331 338 338 314 178 304 278 293 16 334 181 233 227 199 223 101 14 304 285 277 249 246 257 286 275 291 169 199 311 287 274 285 284 67 59 18 350 246 30 14 10
287 289 297 320 332 336 336 210 332 290 281 282 335 23 342 291 281 216 170 182 217 248 254 258 256 268 3 303 285 304 283 219 273 265 243 168 25 358 322 269 42 355 10 349
279 284 281 304 327 338 338 203 318 318 291 325 355 0 5 345 2 29 50 162 229 242 230 261 278 274 297 310 276 286 298 275 287 291 258 212 11 39 28 12 350 343 330 327
272 277 271 282 313 334 2 5 327 310 264 339 326 294 294 329 356 336 205 25 15 9 279 218 271 293 304 268 285 48 241 10 354 14 29 118 49 36 11 349 338 334 327 318
270 266 262 263 286 308 307 281 348 326 275 267 244 232 236 274 326 343 309 13 34 23 20 328 323 333 330 298 5 292 127 67 313 350 66 28 32 19 17 353 338 327 320 316
268 260 254 249 262 271 281 252 350 319 292 275 164 163 221 252 298 312 286 25 92 312 340 274 258 275 162 262 28 299 85 170 130 271 46 14 48 9 345 329 322 318 321 338
271 258 250 240 249 255 269 255 292 278 302 317 285 156 231 179 236 271 236 219 236 231 221 244 246 253 66 278 29 280 45 47 13 56 56 14 347 338 329 327 325 346 337 330
265 256 247 233 236 235 155 183 184 221 303 285 217 108 155 101 121 136 156 170 198 230 236 243 94 76 9 278 208 86 96 82 59 27 2 351 332 332 329 354 344 334 327 323
260 254 245 228 226 220 219 353 199 230 227 261 267 149 158 189 173 153 141 164 191 218 208 294 220 122 189 268 288 109 94 81 67 349 348 334 337 334 6 352 336 326 335 340
244 241 235 216 224 231 250 259 245 199 212 264 272 104 142 186 194 162 164 165 174 203 289 101 244 138 209 277 107 124 116 111 265 1 336 329 354 1 349 343 338 344 341 337
213 202 186 187 208 209 194 230 230 194 224 289 248 224 150 174 219 157 175 233 196 114 232 199 164 208 173 135 133 142 114 48 353 329 330 2 0 350 342 343 346 340 336 334
166 149 158 202 184 211 133 153 178 194 216 237 257 248 138 174 203 149 166 192 240 178 194 103 220 203 116 131 122 109 88 12 338 331 354 353 345 338 350 349 349 341 335 341
151 198 193 97 150 160 203 200 202 189 207 212 231 256 158 188 177 191 193 178 167 240 138 215 193 183 149 145 138 142 134 340 327 27 15 347 345 12 355 347 352 347 341 349
179 201 124 135 186 211 195 211 208 197 206 197 197 216 211 157 204 76 140 232 145 275 138 227 234 118 139 153 152 149 156 315 43 28 356 351 24 14 9 3 1 359 5 13
162 187 211 191 201 183 207 196 186 201 213 158 185 177 153 138 226 115 168 232 235 85 218 224 87 133 143 141 151 175 264 95 86 14 15 42 26 23 12 27 21 34 31 38
191 207 238 208 190 209 215 213 204 200 169 167 176 163 138 167 195 159 205 193 107 227 230 222 134 142 144 152 168 176 111 106 115 51 74 52 52 46 46 40 35 28 29 26
250 236 230 213 246 205 205 205 169 145 152 161 161 161 176 152 162 210 201 146 234 223 250 110 126 135 146 154 151 201 118 129 114 72 85 74 60 56 50 32 41 33 22 18
242 242 256 256 231 242 78 139 164 160 160 172 165 145 119 181 182 185 172 227 228 162 109 123 133 139 147 133 138 119 138 131 125 110 100 98 68 48 34 29 27 20 24 22
233 244 258 279 299 318 282 189 181 165 177 164 168 118 164 205 216 180 186 226 97 104 109 109 122 130 130 135 136 146 140 139 130 124 84 93 65 28 34 31 26 22 21 19
Wind_Speed_850mb
42 43 42 43 34 13 7 14 10 26 32 23 26 26 40 10 3 15 26 15 15 17 23 21 25 22 9 17 11 15 19 27 17 26 24 25 15 15 13 4 19 6 17 10
40 40 39 40 35 20 15 14 16 21 32 16 22 35 29 1 29 16 19 11 23 6 5 15 22 23 20 10 8 19 16 13 17 27 16 34 21 24 25 30 26 23 14 20
37 38 36 35 34 27 18 15 8 16 33 45 37 32 20 22 25 27 15 17 16 10 11 8 11 27 14 7 9 16 12 25 30 26 4 16 14 45 28 26 15 22 23 11
34 35 35 31 31 24 14 14 10 18 18 28 31 36 21 28 20 22 11 15 10 16 6 13 20 16 20 9 11 5 10 25 31 34 7 13 28 34 29 32 27 21 28 33
31 31 34 30 28 17 15 15 18 37 24 32 31 27 27 26 25 23 19 24 25 26 16 12 2 12 12 15 11 16 22 23 28 33 38 39 27 32 36 24 28 29 30 22
29 27 30 29 27 10 12 22 18 20 27 17 17 24 23 21 28 18 19 13 27 17 14 21 17 5 9 19 5 15 26 25 19 28 39 40 32 27 23 19 14 26 22 22
27 23 24 25 23 20 11 19 26 15 21 18 16 24 31 35 17 7 22 17 21 15 10 4 16 19 20 14 14 24 21 16 16 22 26 31 32 10 10 9 12 15 20 13
24 21 19 21 18 16 12 6 19 20 20 32 28 1 12 4 8 6 21 17 10 4 5 5 13 16 23 26 26 8 18 16 21 18 24 29 35 29 23 17 17 31 22 21
22 20 16 17 19 16 11 0 13 15 21 10 32 7 14 14 10 25 14 7 9 10 7 11 14 14 19 17 5 10 3 16 14 18 25 26 20 19 18 9 1 26 24 23
20 19 15 14 16 16 13 11 13 11 22 22 22 17 19 24 11 20 26 20 16 10 11 16 18 22 6 9 12 15 14 3 16 18 15 4 22 19 20 11 11 19 22 23
18 19 15 12 13 15 10 10 12 8 18 16 13 14 21 31 27 14 16 13 13 8 12 15 18 13 12 8 7 16 7 11 17 15 18 2 23 13 15 11 18 28 31 34
18 18 16 12 9 10 3 6 13 17 16 15 10 8 9 11 15 17 13 11 7 19 6 8 8 12 6 13 14 13 4 5 9 11 8 13 22 22 17 20 24 30 34 34
18 18 17 14 9 8 7 9 11 18 18 27 23 18 4 4 8 7 13 4 9 7 10 15 8 6 11 12 5 12 14 12 4 10 15 15 16 16 21 25 28 34 38 43
21 20 18 16 11 9 8 10 4 13 16 12 28 9 5 9 7 8 6 6 2 3 5 18 9 13 3 7 5 10 13 7 6 9 20 15 16 22 26 30 31 34 39 42
22 23 19 18 14 11 9 11 1 8 8 13 6 13 6 7 1 3 6 13 14 10 13 11 10 12 3 9 7 12 17 12 6 12 19 10 19 25 28 31 35 33 41 50
25 23 21 19 15 9 3 8 10 20 2 11 6 17 10 4 3 5 7 8 9 12 12 9 6 15 8 9 7 12 18 15 15 11 11 14 21 23 29 27 33 40 44 44
24 21 19 20 17 15 9 3 8 12 9 9 9 15 14 12 11 12 11 10 11 10 11 3 8 11 7 11 7 22 17 12 8 5 9 19 24 29 26 32 40 39 40 43
20 15 16 18 15 12 13 11 6 7 4 10 8 8 14 21 16 11 8 11 12 6 3 5 9 19 9 3 24 19 13 5 2 9 16 22 23 31 36 38 40 42 42 43
14 11 12 12 11 10 17 9 9 13 8 10 11 9 8 25 23 16 13 7 9 10 8 9 5 7 3 21 22 14 11 6 11 16 18 23 26 31 31 37 37 39 39 40
18 25 5 12 20 13 6 4 8 10 14 12 12 29 11 30 27 11 15 12 9 9 10 13 7 3 30 27 20 14 6 5 12 19 18 22 26 27 31 35 32 33 38 45
22 10 5 5 23 12 12 15 16 18 12 19 29 35 9 24 13 13 13 2 6 6 9 7 11 12 26 27 22 12 4 5 12 10 11 17 21 25 27 33 29 32 37 42
14 8 14 13 13 15 12 10 12 14 20 18 36 32 15 21 7 10 6 4 3 5 13 6 6 18 39 29 23 12 4 7 9 10 12 15 21 23 22 25 28 31 33 38
16 5 9 12 17 6 12 22 13 12 14 20 37 22 19 13 17 9 5 6 7 7 6 7 9 36 28 18 12 6 2 2 7 6 10 18 20 17 20 20 24 26 32 38
8 12 8 12 12 14 15 18 18 22 24 30 36 29 10 18 16 6 8 9 3 7 11 17 24 34 28 17 9 5 3 15 7 6 13 23 18 16 18 20 21 27 30 30
7 10 9 17 21 22 36 26 21 25 33 35 35 27 21 15 5 4 3 8 8 9 6 21 40 31 22 12 5 3 8 13 9 6 16 16 13 15 17 19 20 22 26 27
8 12 15 15 20 7 6 21 22 24 36 43 37 9 9 5 8 10 10 6 9 9 16 34 30 22 14 10 7 10 12 11 8 12 14 5 9 11 15 14 16 21 22 28
9 12 14 19 22 8 13 22 24 30 43 16 13 9 9 9 8 14 12 7 16 38 40 31 28 17 10 9 12 14 14 12 8 11 8 4 9 9 10 14 14 18 20 22
Wind_Direction_850mb
344 349 349 349 348 338 214 261 267 171 172 203 231 239 249 26 181 217 284 325 295 229 183 186 233 256 194 158 291 197 246 285 293 219 217 215 221 281 259 280 295 321 323 83
341 346 349 349 348 338 290 268 141 173 185 222 224 236 265 182 245 199 230 236 280 214 179 181 248 112 80 103 225 17 350 233 260 257 204 360 334 305 280 277 274 301 269 124
336 343 347 347 344 331 307 285 163 175 210 245 293 282 226 229 258 300 229 241 232 280 216 142 230 126 103 142 52 7 315 293 305 300 8 152 238 294 306 295 289 303 309 150
332 339 344 345 340 325 295 249 289 185 193 224 244 265 243 227 204 233 228 265 269 236 249 191 225 201 110 164 119 221 252 259 276 293 322 19 196 202 256 251 293 298 315 318
326 335 341 346 342 319 265 292 349 335 279 195 225 252 273 226 243 174 218 246 241 232 248 331 215 56 190 177 148 234 237 260 279 285 287 285 288 284 288 253 290 302 299 323
320 331 341 349 354 2 309 348 320 289 293 274 217 232 223 251 248 187 262 255 256 231 70 46 41 156 323 328 77 315 310 311 325 299 311 315 303 302 339 332 356 353 340 13
311 323 337 347 360 7 328 343 324 291 276 251 225 237 222 231 270 203 241 291 348 80 81 81 293 299 315 305 323 297 296 296 294 284 286 276 280 302 19 352 337 348 333 26
302 311 327 340 347 349 323 355 322 294 285 299 292 86 281 256 238 231 276 76 26 69 106 288 280 274 242 252 247 258 346 306 286 283 271 278 281 39 25 30 30 26 359 9
293 299 313 331 338 338 314 178 304 278 293 16 334 181 233 227 199 223 101 14 304 285 277 249 246 257 286 275 291 169 199 311 287 274 285 284 67 59 18 350 246 30 14 10
287 289 297 320 332 336 336 210 332 290 281 282 335 23 342 291 281 216 170 182 217 248 254 258 256 268 3 303 285 304 283 219 273 265 243 168 25 358 322 269 42 355 10 349
279 284 281 304 327 338 338 203 318 318 291 325 355 0 5 345 2 29 50 162 229 242 230 261 278 274 297 310 276 286 298 275 287 291 258 212 11 39 28 12 350 343 330 327
272 277 271 282 313 334 2 5 327 310 264 339 326 294 294 329 356 336 205 25 15 9 279 218 271 293 304 268 285 48 241 10 354 14 29 118 49 36 11 349 338 334 327 318
270 266 262 263 286 308 307 281 348 326 275 267 244 232 236 274 326 343 309 13 34 23 20 328 323 333 330 298 5 292 127 67 313 350 66 28 32 19 17 353 338 327 320 316
268 260 254 249 262 271 281 252 350 319 292 275 164 163 221 252 298 312 286 25 92 312 340 274 258 275 162 262 28 299 85 170 130 271 46 14 48 9 345 329 322 318 321 338
271 258 250 240 249 255 269 255 292 278 302 317 285 156 231 179 236 271 236 219 236 231 221 244 246 253 66 278 29 280 45 47 13 56 56 14 347 338 329 327 325 346 337 330
265 256 247 233 236 235 155 183 184 221 303 285 217 108 155 101 121 136 156 170 198 230 236 243 94 76 9 278 208 86 96 82 59 27 2 351 332 332 329 354 344 334 327 323
260 254 245 228 226 220 219 353 199 230 227 261 267 149 158 189 173 153 141 164 191 218 208 294 220 122 189 268 288 109 94 81 67 349 348 334 337 334 6 352 336 326 335 340
244 241 235 216 224 231 250 259 245 199 212 264 272 104 142 186 194 162 164 165 174 203 289 101 244 138 209 277 107 124 116 111 265 1 336 329 354 1 349 343 338 344 341 337
213 202 186 187 208 209 194 230 230 194 224 289 248 224 150 174 219 157 175 233 196 114 232 199 164 208 173 135 133 142 114 48 353 329 330 2 0 350 342 343 346 340 336 334
166 149 158 202 184 211 133 153 178 194 216 237 257 248 138 174 203 149 166 192 240 178 194 103 220 203 116 131 122 109 88 12 338 331 354 353 345 338 350 349 349 341 335 341
151 198 193 97 150 160 203 200 202 189 207 212 231 256 158 188 177 191 193 178 167 240 138 215 193 183 149 145 138 142 134 340 327 27 15 347 345 12 355 347 352 347 341 349
179 201 124 135 186 211 195 211 208 197 206 197 197 216 211 157 204 76 140 232 145 275 138 227 234 118 139 153 152 149 156 315 43 28 356 351 24 14 9 3 1 359 5 13
162 187 211 191 201 183 207 196 186 201 213 158 185 177 153 138 226 115 168 232 235 85 218 224 87 133 143 141 151 175 264 95 86 14 15 42 26 23 12 27 21 34 31 38
191 207 238 208 190 209 215 213 204 200 169 167 176 163 138 167 195 159 205 193 107 227 230 222 134 142 144 152 168 176 111 106 115 51 74 52 52 46 46 40 35 28 29 26
250 236 230 213 246 205 205 205 169 145 152 161 161 161 176 152 162 210 201 146 234 223 250 110 126 135 146 154 151 201 118 129 114 72 85 74 60 56 50 32 41 33 22 18
242 242 256 256 231 242 78 139 164 160 160 172 165 145 119 181 182 185 172 227 228 162 109 123 133 139 147 133 138 119 138 131 125 110 100 98 68 48 34 29 27 20 24 22
233 244 258 279 299 318 282 189 181 165 177 164 168 118 164 205 216 180 186 226 97 104 109 109 122 130 130 135 136 146 140 139 130 124 84 93 65 28 34 31 26 22 21 19